Malaga, Spain

10:34 PM CET on November 17, 2018 (GMT +0100)
Malaga

Weather History for LEMG - November, 2018

Change the Weather History Date:

Friday, November 9, 2018

  Actual Average Record
Temperature  
Mean Temperature 58 °F -  
Max Temperature 65 °F 63 °F 78 °F (2002)
Min Temperature 51 °F 49 °F 42 °F (2000)
Degree Days  
Heating Degree Days 7    
Growing Degree Days 8 (Base 50)    
Moisture  
Dew Point 46 °F    
Average Humidity 61    
Maximum Humidity 94    
Minimum Humidity 33    
Precipitation  
Precipitation 0.00 in 0.14 in - ()
Sea Level Pressure  
Sea Level Pressure 30.17 in    
Wind  
Wind Speed 11 mph ()    
Max Wind Speed 20 mph    
Max Gust Speed 31 mph    
Visibility 6.8 miles    
Events Rain    
Averages and records for this station are not official NWS values.
T = Trace of Precipitation, MM = Missing Value Source: Averaged Metar Reports

Daily Weather History Graph

Daily Weather History Graph

Search for Another Location

Airport or City:

Astronomy

Nov. 09, 2018 Rise Set
Actual Time 7:49 AM CET 6:13 PM CET
Civil Twilight 7:22 AM CET 6:40 PM CET
Nautical Twilight 6:51 AM CET 7:11 PM CET
Astronomical Twilight 6:20 AM CET 7:42 PM CET
Moon 9:23 AM CET (11/9) 7:50 PM CET (11/9)
Length of Visible Light 11h 18m
Length of Day
10h 24m
Waxing Crescent, 4% of the Moon is Illuminated
Nov 9
Waxing Crescent
Nov 15
First Quarter
Nov 23
Full
Nov 30
Last Quarter
Dec 7
New

Hourly Weather History & Observations

Time (CET) Temp. Dew Point Humidity Pressure Visibility Wind Dir Wind Speed Gust Speed Precip Events Conditions
12:00 AM 59.0 °F 57.2 °F 94% 30.09 in 6.2 mi West 5.8 mph - N/A Rain Light Rain
12:30 AM 57.2 °F 55.4 °F 94% 30.12 in 6.2 mi WNW 8.1 mph - N/A Rain Light Rain
1:00 AM 57.2 °F 55.4 °F 94% 30.12 in 6.2 mi WNW 8.1 mph - N/A   Scattered Clouds
1:30 AM 57.2 °F 51.8 °F 82% 30.12 in 6.2 mi West 8.1 mph - N/A   Partly Cloudy
2:00 AM 56 °F 49 °F 71% 30.13 in - WNW 15.0 mph - -   Unknown Precipitation
2:00 AM 57.2 °F 48.2 °F 72% 30.12 in 6.2 mi WNW 13.8 mph - N/A   Partly Cloudy
2:30 AM 57.2 °F 48.2 °F 72% 30.12 in 6.2 mi WNW 15.0 mph - N/A   Partly Cloudy
3:00 AM 56 °F 48 °F 67% 30.14 in - WNW 17.3 mph - -  
3:00 AM 57.2 °F 46.4 °F 67% 30.12 in 6.2 mi WNW 17.3 mph - N/A   Partly Cloudy
3:30 AM 55.4 °F 46.4 °F 72% 30.12 in 6.2 mi WNW 16.1 mph - N/A   Partly Cloudy
4:00 AM 55.4 °F 46.4 °F 72% 30.12 in 6.2 mi WNW 16.1 mph - N/A   Partly Cloudy
4:30 AM 55.4 °F 48.2 °F 77% 30.15 in 6.2 mi WNW 10.4 mph - N/A   Partly Cloudy
5:00 AM 54 °F 47 °F 70% 30.16 in - West 11.5 mph - -  
5:30 AM 55.4 °F 44.6 °F 67% 30.15 in 6.2 mi West 12.7 mph - N/A   Partly Cloudy
6:00 AM 53 °F 46 °F 69% 30.18 in - WNW 9.2 mph - -  
6:00 AM 53.6 °F 46.4 °F 77% 30.15 in 6.2 mi WNW 8.1 mph - N/A   Partly Cloudy
6:30 AM 53.6 °F 44.6 °F 72% 30.15 in 6.2 mi WNW 12.7 mph - N/A   Partly Cloudy
7:00 AM 53.6 °F 44.6 °F 72% 30.18 in 6.2 mi WNW 11.5 mph - N/A   Partly Cloudy
7:30 AM 53.6 °F 44.6 °F 72% 30.18 in 6.2 mi WNW 17.3 mph - N/A   Partly Cloudy
8:00 AM 51.8 °F 46.4 °F 82% 30.18 in 6.2 mi NW 13.8 mph - N/A   Partly Cloudy
8:30 AM 53.6 °F 44.6 °F 72% 30.18 in 6.2 mi WNW 15.0 mph - N/A   Partly Cloudy
9:00 AM 55 °F 46 °F 63% 30.22 in - West 13.8 mph - -  
9:00 AM 55.4 °F 44.6 °F 67% 30.21 in 6.2 mi WNW 13.8 mph - N/A   Partly Cloudy
9:30 AM 57.2 °F 44.6 °F 63% 30.21 in 6.2 mi WNW 11.5 mph - N/A   Partly Cloudy
10:00 AM 57 °F 46 °F 58% 30.24 in 19 mi West 12.7 mph - -   Scattered Clouds
10:00 AM 57.2 °F 44.6 °F 63% 30.21 in 6.2 mi WNW 12.7 mph - N/A   Partly Cloudy
10:30 AM 59.0 °F 44.6 °F 59% 30.21 in 6.2 mi West 15.0 mph - N/A   Partly Cloudy
11:00 AM 60 °F 46 °F 50% 30.24 in - WNW 18.4 mph - -  
11:00 AM 59.0 °F 46.4 °F 63% 30.21 in 6.2 mi WNW 17.3 mph - N/A   Partly Cloudy
11:30 AM 60.8 °F 48.2 °F 63% 30.21 in 6.2 mi WNW 17.3 mph - N/A   Partly Cloudy
12:00 PM 61 °F 44 °F 41% 30.23 in - NW 17.3 mph - -  
12:00 PM 60.8 °F 46.4 °F 59% 30.21 in 6.2 mi NW 16.1 mph - N/A   Partly Cloudy
12:30 PM 62.6 °F 42.8 °F 48% 30.21 in 6.2 mi NW 16.1 mph - N/A   Partly Cloudy
1:00 PM 63 °F 44 °F 39% 30.21 in 19 mi NW 18.4 mph - -   Scattered Clouds
1:00 PM 62.6 °F 44.6 °F 52% 30.18 in 6.2 mi NW 17.3 mph - N/A   Partly Cloudy
1:30 PM 64.4 °F 42.8 °F 45% 30.18 in 6.2 mi NW 17.3 mph 31.1 mph N/A   Partly Cloudy
2:00 PM 64.4 °F 42.8 °F 45% 30.18 in 6.2 mi NW 19.6 mph - N/A   Partly Cloudy
2:30 PM 64.4 °F 42.8 °F 45% 30.15 in 6.2 mi NW 15.0 mph - N/A   Partly Cloudy
3:00 PM 65 °F 43 °F 33% 30.16 in - NW 13.8 mph - -  
3:00 PM 64.4 °F 42.8 °F 45% 30.15 in 6.2 mi NW 15.0 mph 26.5 mph N/A   Partly Cloudy
3:30 PM 64.4 °F 42.8 °F 45% 30.15 in 6.2 mi NNW 16.1 mph - N/A   Partly Cloudy
4:00 PM 64.4 °F 42.8 °F 45% 30.15 in 6.2 mi NW 10.4 mph - N/A   Partly Cloudy
4:30 PM 64.4 °F 42.8 °F 45% 30.15 in 6.2 mi NW 10.4 mph - N/A   Partly Cloudy
5:00 PM 64.4 °F 41.0 °F 42% 30.15 in 6.2 mi NW 11.5 mph - N/A   Partly Cloudy
5:30 PM 62.6 °F 42.8 °F 48% 30.15 in 6.2 mi NW 11.5 mph - N/A   Partly Cloudy
6:00 PM 62 °F 43 °F 38% 30.16 in - NW 9.2 mph - -  
6:00 PM 60.8 °F 44.6 °F 55% 30.15 in 6.2 mi NW 9.2 mph - N/A   Partly Cloudy
6:30 PM 59.0 °F 44.6 °F 59% 30.15 in 6.2 mi NW 6.9 mph - N/A   Partly Cloudy
7:00 PM 59.0 °F 44.6 °F 59% 30.15 in 6.2 mi WNW 10.4 mph - N/A   Partly Cloudy
7:30 PM 59.0 °F 44.6 °F 59% 30.18 in 6.2 mi WNW 11.5 mph - N/A   Partly Cloudy
8:00 PM 59 °F 45 °F 50% 30.20 in - WNW 10.4 mph - -  
8:00 PM 59.0 °F 44.6 °F 59% 30.18 in 6.2 mi WNW 10.4 mph - N/A   Partly Cloudy
8:30 PM 59.0 °F 46.4 °F 63% 30.18 in 6.2 mi WNW 9.2 mph - N/A   Partly Cloudy
9:00 PM 58 °F 46 °F 54% 30.19 in - Calm Calm - -  
9:00 PM 57.2 °F 46.4 °F 67% 30.18 in 6.2 mi Variable 1.2 mph - N/A   Partly Cloudy
9:30 PM 59.0 °F 46.4 °F 63% 30.18 in 6.2 mi WNW 9.2 mph - N/A   Partly Cloudy
10:00 PM 58 °F 46 °F 55% 30.21 in 12 mi WNW 8.1 mph - -   Scattered Clouds
10:00 PM 57.2 °F 46.4 °F 67% 30.18 in 6.2 mi WNW 8.1 mph - N/A   Partly Cloudy
10:30 PM 59.0 °F 48.2 °F 67% 30.18 in 6.2 mi WNW 11.5 mph - N/A   Partly Cloudy
11:00 PM 59 °F 46 °F 52% 30.20 in - WNW 11.5 mph - -  
11:00 PM 59.0 °F 46.4 °F 63% 30.18 in 6.2 mi WNW 11.5 mph - N/A   Partly Cloudy
11:30 PM 59.0 °F 46.4 °F 63% 30.18 in 6.2 mi WNW 13.8 mph - N/A   Partly Cloudy